Location: Unspecified
(0.0000°N, 0.0000°E)
Time: 02:43:12
(UTC+00:00)

CORVUS BC2 - Pass Details

Date: 15 February 2026
Orbit: 540 x 560 km, 97.4° (Epoch: 6 March)

Event Time Altitude Azimuth Distance (km) Brightness Sun altitude
Rises 04:34:57 0° 176° (S) 2,747 ? -24.2°
Reaches altitude 10° 04:37:07 10° 180° (S) 1,850 ? -23.6°
Enters shadow 04:39:36 35° 197° (SSW) 919 ? -23.0°
